Location: ???? ?????????
(31.1304°N, 31.7111°E)
Time: 16:41:45
(UTC+00:00)

deb Explorer IX - All Passes

Search period start: 27 February 2021 00:00
Search period end: 09 March 2021 00:00
Orbit: 537 x 1102 km, 38.8° (Epoch: 27 February)

Date Brightness Start Highest point End Pass type
(mag) Time Alt. Az. Time Alt. Az. Time Alt. Az.
27 Feb - 01:13:58 10° WSW 01:17:59 84° SSE 01:22:16 10° ENE visible
27 Feb - 03:01:09 10° WNW 03:05:00 34° N 03:09:17 10° ENE visible
27 Feb - 04:48:16 10° WNW 04:52:30 36° N 04:57:21 10° ENE daylight
27 Feb - 06:34:42 10° WNW 06:39:45 82° NNE 06:45:45 10° ESE daylight
27 Feb - 08:21:49 10° W 08:26:39 29° SW 08:32:06 10° SSE daylight
27 Feb - 23:05:56 10° S 23:08:07 14° SE 23:10:18 10° ESE night (unlit)
28 Feb - 00:50:20 10° WSW 00:54:22 85° SSE 00:58:33 10° ENE visible
28 Feb - 02:37:34 10° WNW 02:41:21 34° N 02:45:29 10° ENE visible
28 Feb - 04:24:43 10° WNW 04:28:49 35° N 04:33:28 10° ENE daylight
28 Feb - 06:11:07 10° WNW 06:16:00 81° NNE 06:21:49 10° ESE daylight
28 Feb - 07:58:14 10° W 08:02:51 28° SW 08:08:07 10° SSE daylight
28 Feb - 22:42:10 10° S 22:44:28 14° SE 22:46:42 10° ESE night (unlit)
01 Mar - 00:26:42 10° WSW 00:30:44 85° SSE 00:34:51 10° ENE night (unlit)
01 Mar - 02:13:59 10° WNW 02:17:42 33° N 02:21:42 10° ENE visible
01 Mar - 04:01:09 10° NW 04:05:07 34° N 04:09:36 10° ENE daylight
01 Mar - 05:47:32 10° WNW 05:52:17 81° NNE 05:57:52 10° ESE daylight
01 Mar - 07:34:39 10° W 07:39:04 27° SW 07:44:07 10° SSE daylight
01 Mar - 22:18:23 10° S 22:20:47 15° SE 22:23:07 10° ESE night (unlit)
02 Mar - 00:03:01 10° WSW 00:07:06 85° SSE 00:11:10 10° ENE night (unlit)
02 Mar - 01:50:23 10° WNW 01:54:03 32° N 01:57:55 10° NE visible
02 Mar - 03:37:35 10° NW 03:41:27 33° N 03:45:44 10° ENE visible
02 Mar - 05:23:57 10° WNW 05:28:33 81° NNE 05:33:58 10° ESE daylight
02 Mar - 07:11:04 10° W 07:15:19 26° SW 07:20:07 10° SSE daylight
02 Mar - 21:54:34 10° S 21:57:07 15° SE 21:59:34 10° ESE night (unlit)
02 Mar - 23:39:19 10° WSW 23:43:28 86° SSE 23:47:30 10° ENE night (unlit)
03 Mar - 01:26:45 10° WNW 01:30:24 32° N 01:34:11 10° NE visible
03 Mar - 03:14:00 10° NW 03:17:47 32° N 03:21:54 10° ENE visible
03 Mar - 05:00:22 10° WNW 05:04:51 81° NNE 05:10:04 10° ESE daylight
03 Mar - 06:47:30 10° W 06:51:33 25° SW 06:56:08 10° SSE daylight
03 Mar - 21:30:43 10° S 21:33:26 16° SE 21:36:01 10° ESE night (unlit)
03 Mar - 23:15:35 10° WSW 23:19:49 86° SSE 23:23:51 10° ENE night (unlit)
04 Mar - 01:03:06 10° WNW 01:06:44 31° N 01:10:28 10° NE visible
04 Mar - 02:50:24 10° NW 02:54:05 31° N 02:58:06 10° ENE visible
04 Mar - 04:36:47 10° WNW 04:41:09 81° NNE 04:46:11 10° ESE daylight
04 Mar - 06:23:56 10° W 06:27:48 24° SW 06:32:10 10° SSE daylight
04 Mar - 21:06:49 10° S 21:09:44 17° SE 21:12:29 10° ESE night (unlit)
04 Mar - 22:51:50 10° WSW 22:56:10 87° SSE 23:00:13 10° ENE night (unlit)
05 Mar - 00:39:25 10° WNW 00:43:05 31° N 00:46:45 10° NE visible
05 Mar - 02:26:48 10° NW 02:30:26 31° N 02:34:18 10° ENE visible
05 Mar - 04:13:11 10° WNW 04:17:27 81° NNE 04:22:18 10° ESE daylight
05 Mar - 06:00:23 10° W 06:04:04 23° SW 06:08:12 10° SSE daylight
05 Mar - 20:42:54 10° S 20:46:02 17° SE 20:48:56 10° ESE night (unlit)
05 Mar - 22:28:02 10° WSW 22:32:30 87° SSE 22:36:36 10° ENE night (unlit)
06 Mar - 00:15:43 10° WNW 00:19:26 31° N 00:23:04 10° NE night (unlit)
06 Mar - 02:03:09 10° NW 02:06:46 30° N 02:10:32 10° ENE visible
06 Mar - 03:49:35 10° WNW 03:53:46 81° NNE 03:58:27 10° ESE visible
06 Mar - 05:36:49 10° W 05:40:21 22° SW 05:44:15 10° SSE daylight
06 Mar - 20:18:58 10° S 20:22:19 18° SE 20:25:24 10° E night (unlit)
06 Mar - 22:04:14 10° WSW 22:08:50 87° SSE 22:12:58 10° ENE night (unlit)
06 Mar - 23:51:59 10° WNW 23:55:46 32° N 23:59:25 10° NE night (unlit)
07 Mar - 01:39:30 10° NW 01:43:05 30° N 01:46:47 10° ENE visible
07 Mar - 03:25:58 10° WNW 03:30:05 81° NNE 03:34:38 10° ESE visible
07 Mar - 05:13:15 10° W 05:16:37 21° SW 05:20:19 10° SSE daylight
07 Mar - 19:55:01 10° S 19:58:35 19° SE 20:01:51 10° E night (unlit)
07 Mar - 21:40:23 10° WSW 21:45:08 88° SSE 21:49:21 10° ENE night (unlit)
07 Mar - 23:28:13 10° WNW 23:32:05 32° N 23:35:45 10° NE night (unlit)
08 Mar - 01:15:49 10° NW 01:19:26 30° N 01:23:04 10° ENE visible
08 Mar - 03:02:20 10° WNW 03:06:25 81° NNE 03:10:49 10° ESE visible
08 Mar - 04:49:41 10° W 04:52:55 20° SW 04:56:24 10° SSE daylight
08 Mar - 19:31:01 10° S 19:34:50 20° SE 19:38:17 10° E night (unlit)
08 Mar - 21:16:31 10° WSW 21:21:27 88° SE 21:25:44 10° ENE night (unlit)
08 Mar - 23:04:25 10° WNW 23:08:24 32° N 23:12:07 10° NE night (unlit)
